Weather History for KLTS - May, 2013

Change the Weather History Date:

Wednesday, May 22, 2013

  Actual Average Record
Temperature  
Mean Temperature 70 °F -  
Max Temperature 89 °F 84 °F 102 °F (2000)
Min Temperature 50 °F 61 °F 46 °F (2001)
Cooling Degree Days 4    
Growing Degree Days 20 (Base 50)    
Moisture  
Dew Point 50 °F    
Average Humidity 54    
Maximum Humidity 100    
Minimum Humidity 21    
Precipitation  
Precipitation 0.00 in - - ()
Sea Level Pressure  
Sea Level Pressure 29.85 in    
Wind  
Wind Speed 7 mph (ESE)    
Max Wind Speed 17 mph    
Max Gust Speed 23 mph    
Visibility 10 miles    
Events      
Averages and records for this station are not official NWS values.
T = Trace of Precipitation, MM = Missing Value Source: NWS Daily Summary

Daily Weather History Graph

Daily Weather History Graph

Search for Another Location

Airport or City:

Trip Planner

Search our weather history database for the weather conditions in past years. The results will help you decide how hot, cold, wet, or windy it might be!

Date:

Astronomy

May. 22, 2013 Rise Set
Actual Time 6:29 AM CDT 8:38 PM CDT
Civil Twilight 6:01 AM CDT 9:06 PM CDT
Nautical Twilight 5:26 AM CDT 9:41 PM CDT
Astronomical Twilight 4:48 AM CDT 10:19 PM CDT
Moon 6:07 PM CDT (5/22) 4:27 AM CDT (5/22)
Length of Visible Light 15h 05m
Length of Day
14h 09m
Waxing Gibbous, 91% of the Moon is Illuminated
May 22
Waxing Gibbous
May 24
Full
May 31
Last Quarter
Jun 8
New
Jun 16
First Quarter

Hourly Weather History & Observations

Time (CDT) Temp. Dew Point Humidity Pressure Visibility Wind Dir Wind Speed Gust Speed Precip Events Conditions
12:58 AM 57.2 °F 54.9 °F 92% 29.83 in 10.0 mi SE 6.9 mph - N/A   Clear
1:58 AM 55.2 °F 54.0 °F 96% 29.84 in 10.0 mi ESE 5.8 mph - N/A   Clear
2:58 AM 56.1 °F 54.1 °F 93% 29.83 in 10.0 mi NE 2.3 mph - N/A   Clear
3:58 AM 51.8 °F 51.8 °F 100% 29.83 in 10.0 mi East 4.6 mph - N/A   Clear
4:58 AM 53.8 °F 53.8 °F 100% 29.86 in 10.0 mi Calm Calm - N/A   Clear
5:58 AM 50.2 °F 50.2 °F 100% 29.87 in 10.0 mi NE 3.5 mph - N/A   Clear
6:58 AM 53.2 °F 53.1 °F 99% 29.88 in 10.0 mi NW 3.5 mph - N/A   Clear
7:58 AM 60.4 °F 54.9 °F 82% 29.88 in 10.0 mi Calm Calm - N/A   Clear
8:58 AM 65.8 °F 54.1 °F 66% 29.90 in 10.0 mi NW 4.6 mph - N/A   Clear
9:58 AM 71.6 °F 51.1 °F 48% 29.93 in 10.0 mi West 8.1 mph - N/A   Clear
10:58 AM 75.7 °F 51.4 °F 43% 29.92 in 10.0 mi Variable 4.6 mph - N/A   Clear
11:58 AM 79.2 °F 50.0 °F 36% 29.91 in 10.0 mi Variable 4.6 mph - N/A   Partly Cloudy
12:58 PM 81.7 °F 49.1 °F 32% 29.90 in 10.0 mi SE 8.1 mph - N/A   Clear
1:58 PM 84.6 °F 46.8 °F 27% 29.87 in 10.0 mi South 11.5 mph 17.3 mph N/A   Clear
2:58 PM 87.1 °F 46.9 °F 25% 29.85 in 10.0 mi SSE 13.8 mph 20.7 mph N/A   Clear
3:58 PM 88.0 °F 47.5 °F 25% 29.82 in 10.0 mi SSE 13.8 mph 23.0 mph N/A   Clear
4:58 PM 89.1 °F 46.2 °F 23% 29.80 in 10.0 mi SE 13.8 mph 21.9 mph N/A   Clear
5:30 PM 89.6 °F 44.6 °F 21% 29.83 in 10.0 mi SSE 17.3 mph 23.0 mph N/A   Clear
5:58 PM 89.4 °F 45.5 °F 22% 29.79 in 10.0 mi SE 15.0 mph 23.0 mph N/A   Clear
6:58 PM 87.8 °F 45.7 °F 23% 29.78 in 10.0 mi SE 16.1 mph - N/A   Clear
7:58 PM 84.6 °F 44.6 °F 25% 29.78 in 10.0 mi SE 13.8 mph - N/A   Clear
8:58 PM 78.4 °F 46.8 °F 33% 29.78 in 10.0 mi ESE 11.5 mph - N/A   Clear
9:58 PM 75.4 °F 49.1 °F 39% 29.80 in 10.0 mi East 11.5 mph - N/A   Clear
10:58 PM 73.2 °F 53.8 °F 50% 29.82 in 10.0 mi ESE 13.8 mph - N/A   Clear
11:58 PM 69.8 °F 54.9 °F 59% 29.83 in 10.0 mi ESE 12.7 mph - N/A   Clear